Concord, CA

7:04 AM PDT on October 21, 2017 (GMT -0700)
Buchanan

Weather History for KCCR - March, 2013

Change the Weather History Date:

Sunday, March 10, 2013

  Actual Average Record
Temperature  
Mean Temperature 54 °F 55 °F  
Max Temperature 69 °F 65 °F 84 °F (2004)
Min Temperature 38 °F 45 °F 34 °F (2009)
Degree Days  
Heating Degree Days 11    
Month to date heating degree days 120  
Since 1 July heating degree days 2078  
Cooling Degree Days 0    
Month to date cooling degree days 0  
Year to date cooling degree days 0  
Growing Degree Days 2 (Base 50)    
Moisture  
Dew Point 38 °F    
Average Humidity 61    
Maximum Humidity 92    
Minimum Humidity 30    
Precipitation  
Precipitation 0.00 in - 0.09 in (2006)
Month to date precipitation 0.26  
Year to date precipitation 0.98  
Since 1 July precipitation 10.62  
Sea Level Pressure  
Sea Level Pressure 30.26 in    
Wind  
Wind Speed 2 mph (North)    
Max Wind Speed 8 mph    
Max Gust Speed 12 mph    
Visibility 10 miles    
Events      
T = Trace of Precipitation, MM = Missing Value Source: NWS Daily Summary

Daily Weather History Graph

Daily Weather History Graph

Search for Another Location

Airport or City:

Trip Planner

Search our weather history database for the weather conditions in past years. The results will help you decide how hot, cold, wet, or windy it might be!

Date:

Astronomy

Mar. 10, 2013 Rise Set
Actual Time 7:26 AM PDT 7:10 PM PDT
Civil Twilight 7:00 AM PDT 7:37 PM PDT
Nautical Twilight 6:29 AM PDT 8:07 PM PDT
Astronomical Twilight 5:59 AM PDT 8:38 PM PDT
Moon 6:28 AM PDT (3/10) 6:24 PM PDT (3/10)
Length of Visible Light 12h 37m
Length of Day
11h 44m
Waning Crescent, 1% of the Moon is Illuminated
Mar 10
Waning Crescent
Mar 11
New
Mar 19
First Quarter
Mar 27
Full
Apr 2
Last Quarter

Hourly Weather History & Observations

Time (PDT) Temp. Windchill Dew Point Humidity Pressure Visibility Wind Dir Wind Speed Gust Speed Precip Events Conditions
12:53 AM 45.0 °F 42.6 °F 37.9 °F 76% 30.26 in 10.0 mi SSE 4.6 mph - N/A   Clear
1:53 AM 44.1 °F 41.5 °F 37.9 °F 79% 30.27 in 10.0 mi South 4.6 mph - N/A   Clear
3:53 AM 43.0 °F - 37.0 °F 80% 30.27 in 10.0 mi Calm Calm - N/A   Clear
5:53 AM 41.0 °F - 37.0 °F 86% 30.28 in 10.0 mi Calm Calm - N/A   Clear
6:53 AM 39.0 °F - 35.1 °F 86% 30.29 in 10.0 mi Calm Calm - N/A   Clear
7:53 AM 37.9 °F - 35.1 °F 89% 30.30 in 10.0 mi Calm Calm - N/A   Clear
8:53 AM 44.1 °F 42.5 °F 37.9 °F 79% 30.32 in 10.0 mi SSE 3.5 mph - N/A   Clear
9:53 AM 52.0 °F - 36.0 °F 54% 30.33 in 10.0 mi Calm Calm - N/A   Clear
10:53 AM 54.0 °F - 37.0 °F 53% 30.32 in 10.0 mi NW 5.8 mph - N/A   Clear
11:53 AM 57.9 °F - 35.1 °F 42% 30.31 in 10.0 mi Calm Calm - N/A   Clear
12:53 PM 62.1 °F - 35.1 °F 37% 30.28 in 10.0 mi Variable 4.6 mph - N/A   Clear
1:53 PM 64.0 °F - 37.0 °F 37% 30.26 in 10.0 mi Calm Calm - N/A   Clear
2:53 PM 68.0 °F - 36.0 °F 31% 30.24 in 10.0 mi Variable 3.5 mph - N/A   Clear
3:53 PM 66.9 °F - 37.0 °F 33% 30.24 in 10.0 mi Calm Calm - N/A   Clear
4:53 PM 68.0 °F - 37.0 °F 32% 30.22 in 10.0 mi NE 4.6 mph - N/A   Clear
5:53 PM 66.9 °F - 36.0 °F 32% 30.21 in 10.0 mi Calm Calm - N/A   Clear
6:53 PM 63.0 °F - 39.0 °F 41% 30.21 in 10.0 mi North 4.6 mph - N/A   Clear
7:53 PM 55.9 °F - 41.0 °F 57% 30.22 in 10.0 mi NW 4.6 mph - N/A   Clear
8:53 PM 57.0 °F - 37.9 °F 49% 30.22 in 10.0 mi Calm Calm - N/A   Clear
9:53 PM 51.1 °F - 39.0 °F 63% 30.23 in 10.0 mi Calm Calm - N/A   Clear
10:53 PM 50.0 °F - 41.0 °F 71% 30.23 in 10.0 mi Calm Calm - N/A   Clear
11:53 PM 46.9 °F - 42.1 °F 83% 30.22 in 10.0 mi Calm Calm - N/A   Clear
12:53 AM 45.0 °F - 39.9 °F 82% 30.22 in 10.0 mi Calm Calm - N/A   Clear